Regional Weather Roundup
Issued by NWS

Home | Current Version | Previous Version | Text Only | Print | Product List | Glossary Off
Versions: 1 2 3 4 5 6 7 8 9 10 11 12 13 14 15 16 17 18 19 20 21 22 23 24 25 26 27 28 29 30 31 32 33 34 35 36 37 38 39 40 41 42 43 44 45 46 47 48 49 50

000
ASUS43 KOAX 221510
RWRNE

WEATHER ROUNDUP FOR NEBRASKA
NATIONAL WEATHER SERVICE OMAHA NE
1000 AM CDT TUE AUG 22 2017

NOTES: SATELLITE DATA IS BEING USED TO AUGMENT CLOUD COVER ABOVE
       12000 FEET.
       "FAIR" INDICATES FEW OR NO CLOUDS BELOW 12,000 FEET WITH NO
       SIGNIFICANT WEATHER AND/OR OBSTRUCTIONS TO VISIBILITY.


NEZ001>004-019>022-054>056-221600-
NEBRASKA PANHANDLE

CITY           SKY/WX    TMP DP  RH WIND       PRES   REMARKS
SCOTTSBLUFF    SUNNY     64  53  67 E13       30.30S
ALLIANCE       SUNNY     64  46  52 S12       30.31S
CHADRON        SUNNY     64  47  53 CALM      30.27F
GORDON         FAIR      65  47  51 S9        30.30R
KIMBALL        SUNNY     65  56  72 S12       30.35S
SIDNEY         SUNNY     65  49  56 S10       30.34S
$$

NEZ057>060-069>072-079>082-221600-
SOUTHWEST NEBRASKA

CITY           SKY/WX    TMP DP  RH WIND       PRES   REMARKS
NORTH PLATTE   SUNNY     65  55  70 NW3       30.29R
IMPERIAL       SUNNY     66  51  58 E7        30.31R
LEXINGTON      SUNNY     67  54  63 NE13      30.25R
MCCOOK         SUNNY     66  55  67 E8        30.27R
OGALLALA       SUNNY     65  51  61 CALM      30.31R
$$

NEZ005>010-023>029-035>040-094-221600-
NORTH CENTRAL NEBRASKA

CITY           SKY/WX    TMP DP  RH WIND       PRES   REMARKS
VALENTINE      SUNNY     67  47  48 SW7       30.27R
AINSWORTH      SUNNY     65  53  65 E3        30.27R
BROKEN BOW     SUNNY     68  49  50 NE8       30.26R
O`NEILL        SUNNY     64  55  72 NW3       30.24S
ORD            SUNNY     66  52  60 NE3       30.24R
THEDFORD       MOSUNNY   67  49  52 E5        30.29R
$$

NEZ041-046>049-061>064-073>077-083>087-221600-
SOUTH CENTRAL NEBRASKA

CITY           SKY/WX    TMP DP  RH WIND       PRES   REMARKS
GRAND ISLAND   SUNNY     66  56  70 NE9       30.24R
AURORA         SUNNY     66  56  71 NE7       30.23R
HASTINGS       SUNNY     67  56  67 NE8       30.24R
HEBRON         SUNNY     72  58  61 NE12      30.20R
HOLDREGE       SUNNY     64  54  69 E9        30.25R
KEARNEY        SUNNY     66  55  67 E8        30.25R
YORK           SUNNY     66  57  72 NE8       30.22R
$$

NEZ011>018-030>034-042>045-221600-
NORTHEAST NEBRASKA

CITY           SKY/WX    TMP DP  RH WIND       PRES   REMARKS
NORFOLK        SUNNY     66  55  67 N8        30.20S
ALBION         SUNNY     67  57  71 N3        30.23R
BLAIR          SUNNY     67  56  67 N9        30.17R
FREMONT        SUNNY     67  55  63 N5        30.19R
TEKAMAH        SUNNY     68  55  63 N8        30.17R
WAYNE          SUNNY     65  59  81 NW6       30.20R
$$

NEZ050>053-065>068-078-088>093-221600-
SOUTHEAST NEBRASKA

CITY           SKY/WX    TMP DP  RH WIND       PRES   REMARKS
LINCOLN        SUNNY     70  57  63 NE9       30.19R
OMAHA EPPLEY   MOSUNNY   69  58  67 N9        30.16R
BEATRICE       SUNNY     70  63  78 N9        30.18R
FALLS CITY     CLOUDY    69  65  86 N9        30.13R
NEBRASKA CITY  MOSUNNY   70  69  98 N8        30.16R
PLATTSMOUTH    SUNNY     69  58  69 N5        30.16S
$$

NEZ044-045-051>053-067-221600-
OMAHA AREA

CITY           SKY/WX    TMP DP  RH WIND       PRES   REMARKS
OMAHA EPPLEY   MOSUNNY   69  58  67 N9        30.16R
BLAIR          SUNNY     67  56  67 N9        30.17R
FREMONT        SUNNY     67  55  63 N5        30.19R
MILLARD        SUNNY     70  57  63 N7        30.17R
OFFUTT AFB     SUNNY     71  56  61 NW9       30.16R
PLATTSMOUTH    SUNNY     69  58  69 N5        30.16S
WAHOO          FAIR      67  58  72 N6        30.19R
$$



USA.gov is the U.S. government's official web portal to all federal, state and local government web resources and services.